| time (UTC) | temp F | wind direction | speed MPH | gust MPH | rain 1hr in | rain 24hr in | rain mn in | humidity % | barometer mb |
| 20260507061903 | 52 | 274 | 2.0 | 5.0 | 0.00 | 0.00 | 0.00 | 82 | 1011.6 |
| 20260507061403 | 52 | 135 | 2.0 | 5.0 | 0.00 | 0.00 | 0.00 | 82 | 1011.5 |
| 20260507060902 | 51 | 241 | 2.0 | 5.0 | 0.00 | 0.00 | 0.00 | 83 | 1011.4 |
| 20260507060405 | 51 | 269 | 1.0 | 6.0 | 0.00 | 0.00 | 0.00 | 83 | 1011.5 |
| 20260507055903 | 51 | 100 | 2.0 | 6.0 | 0.00 | 0.00 | 0.00 | 84 | 1011.4 |
| 20260507055402 | 51 | 321 | 2.0 | 5.0 | 0.00 | 0.00 | 0.00 | 85 | 1011.2 |
| 20260507054902 | 50 | 257 | 2.0 | 6.0 | 0.00 | 0.00 | 0.00 | 85 | 1011.2 |
| 20260507054404 | 50 | 279 | 2.0 | 6.0 | 0.00 | 0.00 | 0.00 | 85 | 1011.2 |
| 20260507054206 | 50 | 274 | 2.0 | 6.0 | 0.00 | 0.00 | 0.00 | 86 | 1011.2 |
| 20260507053700 | 50 | 293 | 2.0 | 6.0 | 0.00 | 0.00 | 0.00 | 86 | 1011.2 |
| 20260507053006 | 49 | 107 | 2.0 | 4.0 | 0.00 | 0.00 | 0.00 | 86 | 1011.1 |
| 20260507052946 | 49 | 234 | 2.0 | 5.0 | 0.00 | 0.00 | 0.00 | 86 | 1011.2 |
| 20260507051905 | 49 | 206 | 2.0 | 5.0 | 0.00 | 0.00 | 0.00 | 86 | 1010.9 |
| 20260507051402 | 49 | 255 | 1.0 | 5.0 | 0.00 | 0.00 | 0.00 | 87 | 1010.8 |
| 20260507051159 | 49 | 255 | 1.0 | 3.0 | 0.00 | 0.00 | 0.00 | 87 | 1010.8 |
| 20260507050403 | 49 | 331 | 1.0 | 7.0 | 0.00 | 0.00 | 0.00 | 87 | 1010.8 |
| 20260507045906 | 49 | 274 | 2.0 | 7.0 | 0.00 | 0.00 | 0.00 | 87 | 1010.7 |
| 20260507045404 | 49 | 241 | 2.0 | 7.0 | 0.00 | 0.00 | 0.00 | 88 | 1010.7 |
| 20260507044904 | 49 | 216 | 2.0 | 6.0 | 0.00 | 0.00 | 0.00 | 87 | 1010.6 |
| 20260507044404 | 48 | 340 | 2.0 | 5.0 | 0.00 | 0.00 | 0.00 | 87 | 1010.6 |
| 20260507043903 | 48 | 340 | 2.0 | 5.0 | 0.00 | 0.00 | 0.00 | 87 | 1010.6 |
| 20260507043403 | 48 | 63 | 2.0 | 6.0 | 0.00 | 0.00 | 0.00 | 87 | 1010.6 |
| 20260507042905 | 48 | 250 | 1.0 | 6.0 | 0.00 | 0.00 | 0.00 | 87 | 1010.5 |
| 20260507042401 | 48 | 296 | 1.0 | 4.0 | 0.00 | 0.00 | 0.00 | 87 | 1010.5 |
| 20260507041855 | 48 | 89 | 2.0 | 4.0 | 0.00 | 0.00 | 0.00 | 87 | 1010.4 |
| 20260507041349 | 48 | 262 | 2.0 | 4.0 | 0.00 | 0.00 | 0.00 | 87 | 1010.4 |
| 20260507040842 | 48 | 262 | 1.0 | 4.0 | 0.00 | 0.00 | 0.00 | 87 | 1010.4 |
| 20260507040342 | 48 | 232 | 1.0 | 6.0 | 0.00 | 0.00 | 0.00 | 87 | 1010.3 |
| 20260507035835 | 48 | 276 | 2.0 | 6.0 | 0.00 | 0.00 | 0.00 | 87 | 1010.2 |
| 20260507035433 | 49 | 35 | 1.0 | 4.0 | 0.00 | 0.00 | 0.00 | 86 | 1010.2 |
| 20260507035415 | 49 | 286 | 2.0 | 5.0 | 0.00 | 0.00 | 0.00 | 86 | 1010.1 |
| 20260507034337 | 49 | 126 | 1.0 | 4.0 | 0.00 | 0.00 | 0.00 | 86 | 1010.1 |
| 20260507033833 | 49 | 28 | 1.0 | 4.0 | 0.00 | 0.00 | 0.00 | 86 | 1010.1 |
| 20260507033333 | 49 | 1 | 1.0 | 5.0 | 0.00 | 0.00 | 0.00 | 86 | 1010.0 |
| 20260507032833 | 49 | 223 | 1.0 | 5.0 | 0.00 | 0.00 | 0.00 | 85 | 1010.0 |
| 20260507032628 | 49 | 269 | 1.0 | 4.0 | 0.00 | 0.00 | 0.00 | 85 | 1010.0 |
| 20260507031830 | 49 | 300 | 2.0 | 4.0 | 0.00 | 0.00 | 0.00 | 85 | 1010.1 |
| 20260507031331 | 49 | 98 | 2.0 | 4.0 | 0.00 | 0.00 | 0.00 | 85 | 1010.0 |
| 20260507030831 | 50 | 314 | 1.0 | 4.0 | 0.00 | 0.00 | 0.00 | 85 | 1010.1 |
| 20260507030332 | 50 | 206 | 1.0 | 4.0 | 0.00 | 0.00 | 0.00 | 84 | 1009.9 |
| 20260507025831 | 50 | 1 | 1.0 | 4.0 | 0.00 | 0.00 | 0.00 | 84 | 1009.9 |
| 20260507025332 | 50 | 299 | 1.0 | 4.0 | 0.00 | 0.00 | 0.00 | 84 | 1009.8 |
| 20260507024827 | 50 | 46 | 2.0 | 6.0 | 0.00 | 0.00 | 0.00 | 84 | 1009.8 |
| 20260507024327 | 50 | 331 | 2.0 | 6.0 | 0.00 | 0.00 | 0.00 | 84 | 1009.8 |
| 20260507023826 | 51 | 252 | 2.0 | 6.0 | 0.00 | 0.00 | 0.00 | 84 | 1009.9 |
| 20260507023326 | 51 | 223 | 2.0 | 6.0 | 0.00 | 0.00 | 0.00 | 84 | 1009.8 |
| 20260507022822 | 51 | 262 | 2.0 | 6.0 | 0.00 | 0.00 | 0.00 | 84 | 1009.8 |
| 20260507022322 | 51 | 250 | 2.0 | 6.0 | 0.00 | 0.00 | 0.00 | 84 | 1009.8 |
| 20260507021823 | 51 | 197 | 2.0 | 5.0 | 0.00 | 0.00 | 0.00 | 83 | 1009.8 |
| 20260507021324 | 51 | 223 | 2.0 | 7.0 | 0.00 | 0.00 | 0.00 | 83 | 1009.7 |
| 20260507020824 | 51 | 331 | 2.0 | 7.0 | 0.00 | 0.00 | 0.00 | 83 | 1009.7 |
| 20260507020323 | 51 | 240 | 1.0 | 4.0 | 0.00 | 0.00 | 0.00 | 83 | 1009.7 |
| 20260507015916 | 51 | 250 | 2.0 | 7.0 | 0.00 | 0.00 | 0.00 | 83 | 1009.7 |
| 20260507015900 | 51 | 269 | 1.0 | 5.0 | 0.00 | 0.00 | 0.00 | 83 | 1009.6 |
| 20260507014820 | 51 | 276 | 3.0 | 7.0 | 0.00 | 0.00 | 0.00 | 83 | 1009.6 |
| 20260507014319 | 51 | 234 | 3.0 | 7.0 | 0.00 | 0.00 | 0.00 | 83 | 1009.6 |
| 20260507013820 | 51 | 264 | 3.0 | 9.0 | 0.00 | 0.00 | 0.00 | 83 | 1009.5 |
| 20260507013316 | 51 | 229 | 3.0 | 9.0 | 0.00 | 0.00 | 0.00 | 84 | 1009.5 |
| 20260507012817 | 51 | 258 | 2.0 | 9.0 | 0.00 | 0.00 | 0.00 | 84 | 1009.5 |
| 20260507012316 | 51 | 322 | 2.0 | 7.0 | 0.00 | 0.00 | 0.00 | 84 | 1009.3 |
| 20260507011826 | 51 | 35 | 2.0 | 7.0 | 0.00 | 0.00 | 0.00 | 84 | 1009.3 |
| 20260507011316 | 51 | 279 | 2.0 | 7.0 | 0.00 | 0.00 | 0.00 | 83 | 1009.2 |
| 20260507010821 | 51 | 178 | 2.0 | 7.0 | 0.00 | 0.00 | 0.00 | 84 | 1009.2 |
| 20260507010316 | 52 | 269 | 3.0 | 7.0 | 0.00 | 0.00 | 0.00 | 84 | 1009.0 |
| 20260507005816 | 52 | 1 | 3.0 | 7.0 | 0.00 | 0.00 | 0.00 | 83 | 1009.0 |
| 20260507005615 | 52 | 228 | 3.0 | 9.0 | 0.00 | 0.00 | 0.00 | 83 | 1008.9 |
| 20260507004817 | 52 | 269 | 3.0 | 9.0 | 0.00 | 0.00 | 0.00 | 83 | 1009.0 |
| 20260507004633 | 52 | 286 | 3.0 | 6.0 | 0.00 | 0.00 | 0.00 | 83 | 1009.0 |
| 20260507003814 | 52 | 250 | 3.0 | 9.0 | 0.00 | 0.00 | 0.00 | 83 | 1009.2 |
| 20260507003314 | 52 | 89 | 3.0 | 9.0 | 0.00 | 0.00 | 0.00 | 83 | 1009.3 |
| 20260507002814 | 52 | 260 | 3.0 | 7.0 | 0.00 | 0.00 | 0.00 | 83 | 1009.2 |
| 20260507002312 | 52 | 223 | 3.0 | 8.0 | 0.00 | 0.00 | 0.00 | 83 | 1009.2 |
| 20260507002112 | 53 | 257 | 2.0 | 8.0 | 0.00 | 0.00 | 0.00 | 83 | 1009.0 |
| 20260507001311 | 53 | 276 | 2.0 | 6.0 | 0.00 | 0.00 | 0.00 | 83 | 1008.9 |
| 20260507000812 | 53 | 269 | 2.0 | 8.0 | 0.00 | 0.00 | 0.00 | 82 | 1009.0 |
| 20260507000314 | 53 | 56 | 2.0 | 8.0 | 0.00 | 0.00 | 0.00 | 82 | 1009.0 |
| 20260506235812 | 53 | 264 | 2.0 | 7.0 | 0.00 | 0.00 | 0.00 | 82 | 1009.0 |
| 20260506235310 | 53 | 277 | 2.0 | 7.0 | 0.00 | 0.00 | 0.00 | 82 | 1009.0 |
| 20260506234809 | 53 | 229 | 2.0 | 7.0 | 0.00 | 0.00 | 0.00 | 82 | 1009.0 |
| 20260506234311 | 53 | 291 | 3.0 | 7.0 | 0.00 | 0.00 | 0.00 | 82 | 1009.0 |
| 20260506233810 | 53 | 223 | 3.0 | 9.0 | 0.00 | 0.00 | 0.00 | 82 | 1009.2 |
| 20260506233310 | 53 | 269 | 3.0 | 9.0 | 0.00 | 0.00 | 0.00 | 82 | 1009.2 |
| 20260506232811 | 53 | 248 | 3.0 | 13.0 | 0.00 | 0.00 | 0.00 | 82 | 1009.2 |
| 20260506232616 | 53 | 227 | 3.0 | 13.0 | 0.00 | 0.00 | 0.00 | 82 | 1009.2 |
| 20260506231812 | 53 | 269 | 2.0 | 9.0 | 0.00 | 0.00 | 0.00 | 83 | 1009.0 |
| 20260506231310 | 53 | 238 | 3.0 | 9.0 | 0.00 | 0.00 | 0.00 | 83 | 1009.0 |
| 20260506230804 | 53 | 296 | 3.0 | 9.0 | 0.00 | 0.00 | 0.00 | 83 | 1009.0 |
| 20260506230304 | 54 | 233 | 3.0 | 8.0 | 0.00 | 0.00 | 0.00 | 83 | 1008.9 |
| 20260506225803 | 54 | 119 | 3.0 | 8.0 | 0.00 | 0.00 | 0.00 | 83 | 1008.9 |
| 20260506225602 | 54 | 262 | 3.0 | 10.0 | 0.00 | 0.00 | 0.00 | 84 | 1008.9 |
| 20260506224803 | 54 | 250 | 2.0 | 10.0 | 0.00 | 0.00 | 0.00 | 84 | 1008.9 |
| 20260506224302 | 54 | 186 | 2.0 | 9.0 | 0.00 | 0.00 | 0.00 | 84 | 1008.8 |
| 20260506224107 | 54 | 271 | 2.0 | 9.0 | 0.00 | 0.00 | 0.00 | 84 | 1008.8 |
| 20260506223302 | 54 | 292 | 2.0 | 8.0 | 0.00 | 0.00 | 0.00 | 84 | 1008.7 |
| 20260506222802 | 54 | 143 | 2.0 | 7.0 | 0.00 | 0.00 | 0.00 | 84 | 1008.7 |
| 20260506222305 | 54 | 100 | 2.0 | 7.0 | 0.00 | 0.00 | 0.00 | 84 | 1008.7 |
| 20260506221804 | 54 | 223 | 2.0 | 6.0 | 0.00 | 0.00 | 0.00 | 84 | 1008.7 |
| 20260506221303 | 54 | 308 | 2.0 | 6.0 | 0.00 | 0.00 | 0.00 | 85 | 1008.7 |
| 20260506220802 | 54 | 317 | 2.0 | 6.0 | 0.00 | 0.00 | 0.00 | 85 | 1008.6 |
| 20260506220302 | 54 | 115 | 2.0 | 8.0 | 0.00 | 0.00 | 0.00 | 85 | 1008.6 |
| 20260506215801 | 54 | 232 | 2.0 | 8.0 | 0.00 | 0.00 | 0.00 | 85 | 1008.6 |
| 20260506215259 | 54 | 253 | 2.0 | 4.0 | 0.00 | 0.00 | 0.00 | 85 | 1008.5 |
| 20260506214757 | 54 | 314 | 1.0 | 5.0 | 0.00 | 0.00 | 0.00 | 85 | 1008.4 |
| 20260506214257 | 54 | 89 | 2.0 | 8.0 | 0.00 | 0.00 | 0.00 | 84 | 1008.3 |
| 20260506213754 | 54 | 178 | 3.0 | 8.0 | 0.00 | 0.00 | 0.00 | 84 | 1008.4 |
| 20260506213255 | 54 | 231 | 3.0 | 9.0 | 0.00 | 0.00 | 0.00 | 84 | 1008.3 |
| 20260506213057 | 54 | 241 | 3.0 | 9.0 | 0.00 | 0.00 | 0.00 | 84 | 1008.3 |
| 20260506212253 | 54 | 259 | 3.0 | 8.0 | 0.00 | 0.00 | 0.00 | 83 | 1008.4 |
| 20260506211752 | 54 | 302 | 2.0 | 7.0 | 0.00 | 0.00 | 0.00 | 83 | 1008.2 |
| 20260506211551 | 54 | 237 | 2.0 | 7.0 | 0.00 | 0.00 | 0.00 | 82 | 1008.2 |
| 20260506210752 | 54 | 241 | 2.0 | 7.0 | 0.00 | 0.00 | 0.00 | 82 | 1008.2 |
| 20260506210251 | 55 | 289 | 1.0 | 4.0 | 0.00 | 0.00 | 0.00 | 82 | 1008.1 |
| 20260506210128 | 55 | 216 | 1.0 | 4.0 | 0.00 | 0.00 | 0.00 | 81 | 1008.1 |
| 20260506205253 | 55 | 344 | 2.0 | 5.0 | 0.00 | 0.00 | 0.00 | 81 | 1008.0 |
| 20260506205050 | 55 | 276 | 2.0 | 5.0 | 0.00 | 0.00 | 0.00 | 80 | 1007.8 |
| 20260506204253 | 55 | 269 | 1.0 | 6.0 | 0.00 | 0.00 | 0.00 | 80 | 1007.9 |
| 20260506203739 | 55 | 223 | 2.0 | 6.0 | 0.00 | 0.00 | 0.00 | 79 | 1007.9 |
| 20260506203233 | 55 | 290 | 2.0 | 7.0 | 0.00 | 0.00 | 0.00 | 79 | 1008.0 |
| 20260506202730 | 55 | 255 | 2.0 | 7.0 | 0.00 | 0.00 | 0.00 | 78 | 1008.0 |
| 20260506202230 | 55 | 271 | 2.0 | 7.0 | 0.00 | 0.00 | 0.00 | 78 | 1007.8 |
| 20260506201730 | 55 | 89 | 2.0 | 7.0 | 0.00 | 0.00 | 0.00 | 77 | 1007.9 |
| 20260506201231 | 56 | 197 | 3.0 | 7.0 | 0.00 | 0.00 | 0.00 | 77 | 1007.8 |
| 20260506200736 | 56 | 232 | 3.0 | 8.0 | 0.00 | 0.00 | 0.00 | 77 | 1007.8 |
| 20260506200235 | 56 | 250 | 2.0 | 9.0 | 0.00 | 0.00 | 0.00 | 77 | 1007.8 |
| 20260506200101 | 57 | 264 | 2.0 | 6.0 | 0.00 | 0.00 | 0.00 | 76 | 1007.5 |
| 20260506195942 | 57 | 223 | 2.0 | 9.0 | 0.00 | 0.00 | 0.00 | 76 | 1007.8 |
| 20260506195346 | 57 | 89 | 2.0 | 7.0 | 0.00 | 0.00 | 0.00 | 76 | 1007.7 |
| 20260506194233 | 57 | 135 | 2.0 | 6.0 | 0.00 | 0.00 | 0.00 | 76 | 1007.4 |
| 20260506193733 | 58 | 241 | 2.0 | 6.0 | 0.00 | 0.00 | 0.00 | 75 | 1007.1 |
| 20260506193232 | 58 | 257 | 2.0 | 8.0 | 0.00 | 0.00 | 0.00 | 75 | 1007.0 |
| 20260506192732 | 58 | 231 | 3.0 | 10.0 | 0.00 | 0.00 | 0.00 | 74 | 1006.7 |
| 20260506192230 | 58 | 255 | 3.0 | 10.0 | 0.00 | 0.00 | 0.00 | 73 | 1006.8 |
| 20260506191730 | 58 | 206 | 3.0 | 9.0 | 0.00 | 0.00 | 0.00 | 72 | 1006.7 |
| 20260506191231 | 58 | 178 | 3.0 | 9.0 | 0.00 | 0.00 | 0.00 | 72 | 1006.5 |
| 20260506190733 | 58 | 262 | 3.0 | 9.0 | 0.00 | 0.00 | 0.00 | 71 | 1006.4 |
| 20260506190229 | 59 | 183 | 2.0 | 8.0 | 0.00 | 0.00 | 0.00 | 70 | 1006.2 |
| 20260506185730 | 59 | 269 | 2.0 | 8.0 | 0.00 | 0.00 | 0.00 | 71 | 1006.2 |
| 20260506185231 | 59 | 165 | 2.0 | 8.0 | 0.00 | 0.00 | 0.00 | 71 | 1006.0 |
| 20260506184729 | 59 | 333 | 2.0 | 7.0 | 0.00 | 0.00 | 0.00 | 73 | 1005.9 |
| 20260506184231 | 59 | 279 | 3.0 | 8.0 | 0.00 | 0.00 | 0.00 | 74 | 1005.8 |
| 20260506183730 | 59 | 229 | 3.0 | 8.0 | 0.00 | 0.00 | 0.00 | 75 | 1005.7 |
| 20260506183232 | 59 | 238 | 3.0 | 8.0 | 0.00 | 0.00 | 0.00 | 77 | 1005.6 |
| 20260506183024 | 59 | 269 | 2.0 | 7.0 | 0.00 | 0.00 | 0.00 | 77 | 1005.6 |
| 20260506182229 | 59 | 264 | 2.0 | 7.0 | 0.00 | 0.00 | 0.00 | 76 | 1005.4 |
| 20260506181727 | 60 | 211 | 2.0 | 5.0 | 0.00 | 0.00 | 0.00 | 77 | 1005.3 |
| 20260506181229 | 60 | 236 | 2.0 | 6.0 | 0.00 | 0.00 | 0.00 | 77 | 1005.3 |
| 20260506180727 | 60 | 130 | 2.0 | 7.0 | 0.00 | 0.00 | 0.00 | 77 | 1005.1 |
| 20260506180228 | 60 | 230 | 1.0 | 7.0 | 0.00 | 0.00 | 0.00 | 77 | 1005.0 |
| 20260506180031 | 60 | 98 | 1.0 | 5.0 | 0.00 | 0.00 | 0.00 | 77 | 1004.9 |
| 20260506175230 | 60 | 46 | 1.0 | 4.0 | 0.00 | 0.00 | 0.00 | 77 | 1004.7 |
| 20260506174726 | 61 | 234 | 1.0 | 4.0 | 0.00 | 0.00 | 0.00 | 78 | 1004.6 |
| 20260506174226 | 61 | 142 | 2.0 | 5.0 | 0.00 | 0.00 | 0.00 | 78 | 1004.4 |
| 20260506173727 | 61 | 82 | 2.0 | 5.0 | 0.00 | 0.00 | 0.00 | 77 | 1004.3 |
| 20260506173226 | 61 | 46 | 1.0 | 5.0 | 0.00 | 0.01 | 0.00 | 77 | 1004.1 |
| 20260506172726 | 61 | 1 | 2.0 | 4.0 | 0.00 | 0.01 | 0.00 | 77 | 1004.1 |
| 20260506172226 | 62 | 161 | 2.0 | 6.0 | 0.00 | 0.01 | 0.00 | 76 | 1003.8 |
| 20260506171726 | 62 | 58 | 2.0 | 6.0 | 0.00 | 0.01 | 0.00 | 75 | 1003.7 |
| 20260506171228 | 62 | 148 | 3.0 | 6.0 | 0.00 | 0.02 | 0.00 | 74 | 1004.0 |
| 20260506170727 | 62 | 132 | 3.0 | 7.0 | 0.00 | 0.02 | 0.00 | 73 | 1004.1 |
| 20260506170230 | 63 | 82 | 3.0 | 11.0 | 0.00 | 0.02 | 0.00 | 73 | 1004.2 |
| 20260506170016 | 63 | 223 | 3.0 | 11.0 | 0.00 | 0.03 | 0.00 | 72 | 1003.9 |
| 20260506165220 | 64 | 168 | 4.0 | 13.0 | 0.00 | 0.03 | 0.00 | 70 | 1003.9 |
| 20260506164720 | 65 | 244 | 4.0 | 13.0 | 0.00 | 0.03 | 0.00 | 68 | 1003.9 |
| 20260506164329 | 66 | 113 | 3.0 | 8.0 | 0.00 | 0.03 | 0.00 | 62 | 1003.9 |
| 20260506164309 | 66 | 28 | 3.0 | 8.0 | 0.00 | 0.03 | 0.00 | 64 | 1003.8 |
| 20260506163515 | 66 | 169 | 3.0 | 6.0 | 0.00 | 0.03 | 0.00 | 59 | 1004.3 |
| 20260506162719 | 67 | 127 | 2.0 | 5.0 | 0.00 | 0.05 | 0.00 | 58 | 1004.3 |
| 20260506162554 | 67 | 201 | 2.0 | 5.0 | 0.00 | 0.06 | 0.00 | 58 | 1004.4 |
| 20260506161719 | 67 | 89 | 1.0 | 5.0 | 0.00 | 0.08 | 0.00 | 57 | 1004.4 |
| 20260506161215 | 68 | 59 | 1.0 | 4.0 | 0.00 | 0.08 | 0.00 | 56 | 1004.2 |
| 20260506161010 | 68 | 250 | 1.0 | 3.0 | 0.00 | 0.08 | 0.00 | 55 | 1004.2 |
| 20260506160216 | 68 | 1 | 1.0 | 3.0 | 0.00 | 0.08 | 0.00 | 53 | 1004.2 |
| 20260506155715 | 68 | 241 | 1.0 | 3.0 | 0.00 | 0.08 | 0.00 | 51 | 1004.1 |
| 20260506155508 | 69 | 63 | 0.0 | 2.0 | 0.00 | 0.08 | 0.00 | 54 | 1003.9 |
| 20260506154712 | 69 | 135 | 0.0 | 2.0 | 0.00 | 0.09 | 0.00 | 53 | 1003.8 |
| 20260506154211 | 69 | 117 | 0.0 | 2.0 | 0.00 | 0.09 | 0.00 | 53 | 1004.0 |
| 20260506153715 | 69 | 178 | 1.0 | 2.0 | 0.00 | 0.09 | 0.00 | 53 | 1004.0 |
| 20260506153208 | 69 | 46 | 0.0 | 2.0 | 0.00 | 0.09 | 0.00 | 53 | 1004.0 |
| 20260506152707 | 69 | 223 | 0.0 | 2.0 | 0.00 | 0.09 | 0.00 | 54 | 1003.9 |
| 20260506152210 | 69 | 269 | 1.0 | 3.0 | 0.00 | 0.09 | 0.00 | 53 | 1003.9 |
| 20260506151706 | 69 | 178 | 1.0 | 3.0 | 0.00 | 0.09 | 0.00 | 54 | 1003.9 |
| 20260506151205 | 69 | 245 | 1.0 | 4.0 | 0.00 | 0.09 | 0.00 | 55 | 1004.0 |
| 20260506150706 | 69 | 113 | 1.0 | 4.0 | 0.00 | 0.09 | 0.00 | 54 | 1003.8 |
| 20260506150507 | 69 | 72 | 1.0 | 2.0 | 0.00 | 0.09 | 0.00 | 56 | 1003.9 |
| 20260506145703 | 69 | 178 | 1.0 | 3.0 | 0.00 | 0.09 | 0.00 | 56 | 1003.9 |
| 20260506145203 | 69 | 292 | 1.0 | 3.0 | 0.00 | 0.09 | 0.00 | 54 | 1003.9 |
| 20260506144704 | 69 | 314 | 2.0 | 4.0 | 0.00 | 0.09 | 0.00 | 54 | 1004.0 |
| 20260506144202 | 69 | 63 | 2.0 | 4.0 | 0.00 | 0.09 | 0.00 | 54 | 1004.0 |
| 20260506143703 | 69 | 250 | 1.0 | 3.0 | 0.00 | 0.09 | 0.00 | 55 | 1003.9 |
| 20260506143204 | 69 | 89 | 1.0 | 4.0 | 0.00 | 0.09 | 0.00 | 55 | 1004.0 |
| 20260506142702 | 69 | 89 | 1.0 | 4.0 | 0.00 | 0.09 | 0.00 | 55 | 1004.1 |
| 20260506142202 | 69 | 46 | 1.0 | 5.0 | 0.00 | 0.09 | 0.00 | 54 | 1004.2 |
| 20260506141706 | 69 | 89 | 2.0 | 5.0 | 0.00 | 0.09 | 0.00 | 53 | 1004.2 |
| 20260506141203 | 69 | 46 | 2.0 | 5.0 | 0.00 | 0.09 | 0.00 | 53 | 1004.1 |
| 20260506140954 | 69 | 1 | 2.0 | 6.0 | 0.00 | 0.09 | 0.00 | 53 | 1004.2 |
| 20260506140203 | 70 | 107 | 2.0 | 6.0 | 0.00 | 0.09 | 0.00 | 52 | 1004.2 |
| 20260506140011 | 70 | 84 | 1.0 | 4.0 | 0.00 | 0.09 | 0.00 | 53 | 1004.2 |
| 20260506135202 | 69 | 117 | 1.0 | 4.0 | 0.00 | 0.09 | 0.00 | 53 | 1004.3 |
| 20260506134702 | 70 | 67 | 1.0 | 4.0 | 0.00 | 0.09 | 0.00 | 52 | 1004.3 |
| 20260506134201 | 70 | 117 | 1.0 | 4.0 | 0.00 | 0.09 | 0.00 | 52 | 1004.3 |
| 20260506133703 | 70 | 89 | 1.0 | 4.0 | 0.00 | 0.09 | 0.00 | 52 | 1004.3 |
| 20260506133203 | 70 | 89 | 1.0 | 4.0 | 0.00 | 0.09 | 0.00 | 51 | 1004.4 |
| 20260506132705 | 70 | 84 | 1.0 | 4.0 | 0.00 | 0.09 | 0.00 | 54 | 1004.5 |
| 20260506132209 | 70 | 152 | 1.0 | 3.0 | 0.00 | 0.09 | 0.00 | 53 | 1004.6 |
| 20260506131705 | 70 | 89 | 1.0 | 6.0 | 0.00 | 0.09 | 0.00 | 52 | 1004.7 |
| 20260506131205 | 71 | 269 | 2.0 | 6.0 | 0.00 | 0.09 | 0.00 | 52 | 1004.8 |
| 20260506130658 | 71 | 72 | 2.0 | 5.0 | 0.00 | 0.09 | 0.00 | 52 | 1004.8 |
| 20260506130152 | 71 | 130 | 2.0 | 5.0 | 0.00 | 0.09 | 0.00 | 51 | 1004.7 |
| 20260506125646 | 71 | 68 | 2.0 | 6.0 | 0.00 | 0.09 | 0.00 | 50 | 1004.7 |
| 20260506125146 | 72 | 89 | 2.0 | 6.0 | 0.00 | 0.09 | 0.00 | 51 | 1004.8 |
| 20260506124642 | 72 | 76 | 1.0 | 5.0 | 0.00 | 0.09 | 0.00 | 52 | 1004.8 |
| 20260506124437 | 72 | 46 | 1.0 | 4.0 | 0.00 | 0.09 | 0.00 | 54 | 1004.7 |
| 20260506123642 | 71 | 152 | 2.0 | 5.0 | 0.00 | 0.09 | 0.00 | 52 | 1004.7 |
| 20260506123141 | 72 | 223 | 2.0 | 6.0 | 0.00 | 0.09 | 0.00 | 53 | 1004.9 |
| 20260506122940 | 71 | 46 | 2.0 | 6.0 | 0.00 | 0.09 | 0.00 | 55 | 1004.9 |
| 20260506122142 | 71 | 223 | 1.0 | 4.0 | 0.00 | 0.09 | 0.00 | 55 | 1004.9 |
| 20260506121643 | 70 | 124 | 2.0 | 7.0 | 0.00 | 0.09 | 0.00 | 55 | 1004.9 |
| 20260506121141 | 70 | 121 | 2.0 | 7.0 | 0.00 | 0.09 | 0.00 | 55 | 1005.1 |
| 20260506120945 | 70 | 121 | 2.0 | 6.0 | 0.00 | 0.09 | 0.00 | 56 | 1005.1 |
| 20260506120248 | 70 | 286 | 2.0 | 6.0 | 0.00 | 0.09 | 0.00 | 56 | 1005.4 |
| 20260506120230 | 70 | 213 | 2.0 | 6.0 | 0.00 | 0.09 | 0.00 | 55 | 1005.3 |
| 20260506115141 | 70 | 89 | 2.0 | 6.0 | 0.00 | 0.09 | 0.00 | 56 | 1005.5 |
| 20260506114637 | 70 | 234 | 2.0 | 6.0 | 0.00 | 0.09 | 0.00 | 56 | 1005.4 |
| 20260506114133 | 69 | 56 | 2.0 | 8.0 | 0.00 | 0.09 | 0.00 | 58 | 1005.5 |
| 20260506113632 | 69 | 67 | 2.0 | 8.0 | 0.00 | 0.09 | 0.00 | 60 | 1005.6 |
| 20260506113455 | 68 | 89 | 3.0 | 8.0 | 0.00 | 0.09 | 0.00 | 60 | 1005.7 |
| 20260506112633 | 68 | 51 | 3.0 | 8.0 | 0.00 | 0.09 | 0.00 | 60 | 1005.6 |
| 20260506112132 | 67 | 89 | 3.0 | 7.0 | 0.00 | 0.09 | 0.00 | 60 | 1005.6 |
| 20260506111631 | 67 | 139 | 2.0 | 5.0 | 0.00 | 0.09 | 0.00 | 62 | 1005.6 |
| 20260506111131 | 67 | 164 | 2.0 | 6.0 | 0.00 | 0.09 | 0.00 | 61 | 1005.7 |
| 20260506110631 | 66 | 148 | 2.0 | 6.0 | 0.00 | 0.09 | 0.00 | 62 | 1005.8 |
| 20260506110132 | 66 | 264 | 2.0 | 5.0 | 0.00 | 0.09 | 0.00 | 63 | 1005.7 |
| 20260506105938 | 66 | 178 | 2.0 | 5.0 | 0.00 | 0.09 | 0.00 | 64 | 1005.9 |
| 20260506105131 | 66 | 223 | 2.0 | 5.0 | 0.00 | 0.09 | 0.00 | 64 | 1005.9 |
| 20260506104631 | 66 | 286 | 3.0 | 7.0 | 0.00 | 0.09 | 0.00 | 63 | 1006.0 |
| 20260506104433 | 66 | 274 | 3.0 | 7.0 | 0.00 | 0.09 | 0.00 | 63 | 1006.2 |
| 20260506103632 | 66 | 108 | 2.0 | 9.0 | 0.00 | 0.09 | 0.00 | 63 | 1006.3 |
| 20260506103133 | 67 | 269 | 2.0 | 9.0 | 0.00 | 0.09 | 0.00 | 62 | 1006.4 |
| 20260506102631 | 67 | 107 | 2.0 | 7.0 | 0.00 | 0.09 | 0.00 | 63 | 1006.2 |
| 20260506102131 | 67 | 86 | 2.0 | 7.0 | 0.00 | 0.09 | 0.00 | 64 | 1006.3 |
| 20260506101631 | 66 | 178 | 2.0 | 5.0 | 0.00 | 0.09 | 0.00 | 64 | 1006.3 |
| 20260506101132 | 66 | 117 | 2.0 | 5.0 | 0.00 | 0.09 | 0.00 | 65 | 1006.2 |
| 20260506100632 | 66 | 129 | 2.0 | 5.0 | 0.00 | 0.09 | 0.00 | 66 | 1006.3 |
| 20260506100133 | 65 | 82 | 2.0 | 6.0 | 0.00 | 0.09 | 0.00 | 67 | 1006.2 |
| 20260506095733 | 65 | 46 | 2.0 | 7.0 | 0.00 | 0.09 | 0.00 | 67 | 1006.3 |
| 20260506095714 | 65 | 223 | 2.0 | 6.0 | 0.00 | 0.09 | 0.00 | 67 | 1006.3 |
| 20260506094632 | 65 | 89 | 3.0 | 7.0 | 0.00 | 0.09 | 0.00 | 67 | 1006.3 |
| 20260506094130 | 65 | 86 | 3.0 | 7.0 | 0.00 | 0.09 | 0.00 | 66 | 1006.3 |
| 20260506093631 | 65 | 84 | 3.0 | 7.0 | 0.00 | 0.09 | 0.00 | 66 | 1006.4 |
| 20260506093131 | 65 | 112 | 2.0 | 7.0 | 0.00 | 0.09 | 0.00 | 67 | 1006.3 |
| 20260506092631 | 65 | 89 | 2.0 | 7.0 | 0.00 | 0.09 | 0.00 | 67 | 1006.5 |
| 20260506092129 | 65 | 79 | 2.0 | 7.0 | 0.00 | 0.09 | 0.00 | 67 | 1006.4 |
| 20260506091631 | 64 | 107 | 2.0 | 7.0 | 0.00 | 0.09 | 0.00 | 68 | 1006.5 |
| 20260506091428 | 64 | 115 | 2.0 | 5.0 | 0.00 | 0.09 | 0.00 | 68 | 1006.4 |
| 20260506090631 | 64 | 254 | 2.0 | 6.0 | 0.00 | 0.09 | 0.00 | 67 | 1006.5 |
| 20260506090134 | 64 | 200 | 2.0 | 7.0 | 0.00 | 0.09 | 0.00 | 67 | 1006.6 |
| 20260506085935 | 65 | 89 | 2.0 | 7.0 | 0.00 | 0.09 | 0.00 | 68 | 1006.6 |
| 20260506085133 | 65 | 344 | 2.0 | 5.0 | 0.00 | 0.09 | 0.00 | 68 | 1006.6 |
| 20260506084630 | 65 | 84 | 2.0 | 5.0 | 0.00 | 0.09 | 0.00 | 69 | 1006.5 |
| 20260506084131 | 64 | 117 | 2.0 | 7.0 | 0.00 | 0.09 | 0.00 | 71 | 1006.7 |
| 20260506083933 | 64 | 75 | 2.0 | 7.0 | 0.00 | 0.09 | 0.00 | 71 | 1006.6 |
| 20260506083129 | 63 | 250 | 2.0 | 5.0 | 0.00 | 0.09 | 0.00 | 73 | 1006.5 |
| 20260506082933 | 62 | 84 | 2.0 | 6.0 | 0.00 | 0.09 | 0.00 | 74 | 1006.6 |
| 20260506082128 | 62 | 63 | 2.0 | 6.0 | 0.00 | 0.09 | 0.00 | 75 | 1006.8 |
| 20260506081632 | 61 | 269 | 2.0 | 6.0 | 0.00 | 0.09 | 0.00 | 76 | 1006.9 |
| 20260506081130 | 61 | 135 | 2.0 | 6.0 | 0.00 | 0.09 | 0.00 | 76 | 1006.9 |
| 20260506080631 | 60 | 67 | 2.0 | 6.0 | 0.00 | 0.09 | 0.00 | 76 | 1006.9 |
| 20260506080124 | 60 | 35 | 2.0 | 6.0 | 0.00 | 0.09 | 0.00 | 77 | 1007.0 |
| 20260506073114 | 60 | 0 | 2.0 | 6.0 | 0.00 | 0.09 | 0.00 | 78 | 1006.8 |
| 20260506072614 | 60 | 241 | 2.0 | 6.0 | 0.00 | 0.09 | 0.00 | 78 | 1006.9 |
| 20260506072114 | 60 | 135 | 2.0 | 5.0 | 0.00 | 0.09 | 0.00 | 79 | 1006.8 |
| 20260506071612 | 59 | 165 | 2.0 | 6.0 | 0.00 | 0.09 | 0.00 | 79 | 1006.9 |
| 20260506071114 | 59 | 105 | 2.0 | 6.0 | 0.00 | 0.09 | 0.00 | 80 | 1006.8 |
| 20260506070612 | 58 | 161 | 2.0 | 6.0 | 0.00 | 0.09 | 0.00 | 80 | 1006.9 |
| 20260506070111 | 58 | 68 | 2.0 | 5.0 | 0.00 | 0.09 | 0.00 | 80 | 1006.9 |